Vorticity
8 8 9 8 8 8 8 8 8 8 8 7 7 6 6 5 5 4 4 4 4 4 4 4 4 4 5 5 5 5 5 5 5 5 5 4 4 4 4 4 4 4 4 4 4 4 4 4 4 4 4 4 4 4 3 3 3 3 2 2 2 2 2 2 3 4 5 7 9 11 13 15 17 19 20 22 23 25 25 26 27 28 28 28 28 29
8 8 9 8 8 8 8 8 7 7 7 6 5 5 4 4 4 4 4 4 4 4 4 4 4 4 5 5 5 5 5 5 4 4 4 4 4 4 4 4 4 4 4 4 4 4 4 4 4 3 3 3 3 3 2 2 2 2 2 3 3 4 6 8 10 12 14 17 19 21 23 25 26 27 29 30 31 31 32 33 33 33 33 33 34 34
8 9 8 8 8 7 8 7 6 5 5 5 5 4 3 3 3 3 3 3 4 4 4 4 4 5 5 5 5 5 5 4 4 4 4 4 4 4 4 4 4 4 4 4 3 3 3 3 3 3 2 2 2 2 2 3 3 4 6 8 10 12 14 17 20 22 24 26 27 28 29 30 31 31 32 33 34 34 35 35 35 35 35 35 35 35
8 8 8 8 7 6 6 6 5 5 5 4 4 4 4 4 4 4 4 4 4 4 4 4 5 5 5 5 5 5 4 4 4 3 3 3 4 4 4 3 3 3 3 3 3 3 3 2 2 2 2 3 3 4 5 7 9 11 14 16 19 21 24 26 28 29 30 31 31 32 32 32 32 33 34 34 34 34 34 34 33 33 32 32 32 32
7 7 7 7 6 6 5 5 5 5 4 4 4 4 4 4 4 4 4 4 4 4 5 5 5 5 5 5 4 4 4 3 3 3 3 3 3 3 3 3 3 3 3 2 2 2 2 3 3 4 5 6 8 10 12 15 17 20 22 25 27 28 30 31 32 32 32 32 32 32 32 32 33 33 33 33 32 31 30 29 28 27 27 27 26 26
7 7 6 6 6 5 5 5 5 5 5 5 5 4 5 5 5 5 5 5 5 5 5 5 4 4 4 4 4 4 3 3 3 3 3 3 3 3 3 3 2 2 2 2 3 3 4 5 7 9 11 13 16 19 21 23 25 27 29 30 31 32 33 33 33 32 32 32 31 31 31 31 31 30 30 28 27 26 24 24 23 23 23 22 22 21
7 6 6 5 5 5 5 5 5 5 5 5 5 5 5 5 5 5 5 5 5 5 4 4 4 4 4 4 3 3 3 3 3 3 3 3 3 2 2 2 3 3 4 5 6 7 9 12 14 17 19 22 24 26 28 30 31 32 33 33 33 33 32 32 31 31 30 29 29 28 28 28 27 27 26 25 24 23 22 21 21 21 21 20 20 20
6 6 5 5 5 5 5 5 5 5 5 5 5 5 5 5 5 5 5 4 4 4 4 4 4 4 4 3 3 3 3 3 3 3 3 3 3 3 3 4 5 6 8 10 13 15 17 20 22 25 27 29 30 31 32 32 33 33 33 32 31 31 30 29 28 28 27 26 26 26 25 26 26 25 25 24 23 22 22 22 22 21 21 21 22 22
5 5 5 5 5 4 5 5 6 6 5 5 5 5 5 5 5 4 4 4 4 4 4 3 3 3 4 3 3 3 3 3 3 3 3 3 4 4 5 7 10 13 16 19 21 23 26 28 29 31 32 33 33 33 32 32 31 30 30 29 28 27 26 25 25 24 24 24 25 25 26 26 26 26 25 24 23 23 23 23 23 24 24 25 26 27
5 5 4 5 5 5 5 5 5 5 5 5 5 5 5 4 3 3 3 4 4 4 4 3 3 3 3 3 2 2 2 3 3 4 4 6 7 9 11 15 18 21 24 26 28 30 32 32 33 33 33 33 32 31 30 29 28 27 26 25 24 24 23 23 23 23 24 25 26 27 27 27 26 26 25 25 24 24 24 25 26 27 28 29 30 31
5 5 5 5 5 6 6 6 5 5 5 5 5 5 5 4 3 2 2 2 3 3 3 3 3 2 3 3 3 2 3 4 5 6 8 11 14 18 22 25 27 29 30 31 32 33 34 33 33 32 31 30 29 27 26 25 24 24 23 22 22 22 22 23 24 25 26 27 27 27 27 26 26 26 26 25 24 25 26 27 28 29 29 30 31 31
5 5 6 5 5 6 6 6 5 5 4 4 4 3 4 3 3 3 2 2 2 2 2 2 2 2 2 3 3 4 5 6 8 11 15 19 24 27 31 32 33 33 33 33 33 33 33 32 30 29 27 26 24 23 22 22 22 21 21 20 21 21 22 24 25 26 27 27 26 26 26 26 26 26 25 24 24 25 26 26 27 27 27 27 28 28
6 6 5 5 5 5 5 4 4 4 4 4 3 3 2 2 2 3 3 2 2 2 2 2 3 4 3 4 5 7 9 11 14 18 23 28 32 34 34 33 33 33 33 33 32 32 30 28 26 24 23 21 20 20 20 20 19 19 19 20 21 22 24 25 26 26 26 26 26 26 27 27 26 25 24 23 23 23 24 23 23 23 24 24 24 24
5 5 5 5 4 4 4 3 3 3 3 3 3 2 1 1 1 2 2 2 2 2 2 3 4 6 7 9 11 13 15 18 23 27 33 35 36 35 33 32 31 31 31 30 29 28 25 23 21 20 19 18 18 18 18 18 18 19 19 21 22 24 25 25 25 25 25 26 26 27 27 26 25 23 21 21 20 20 20 20 20 21 21 21 21 21
4 4 4 4 4 3 3 3 3 2 2 2 2 2 2 2 2 2 3 3 3 4 5 6 8 10 13 17 20 23 25 27 31 34 38 38 37 34 32 30 29 29 29 27 25 23 20 18 17 16 16 16 16 17 17 18 18 19 20 21 23 24 24 24 25 25 26 26 26 26 25 23 22 20 18 17 16 16 17 18 19 20 20 20 19 20
4 4 4 3 3 3 3 3 2 2 2 2 2 2 2 2 3 4 5 5 6 7 9 11 14 19 24 28 30 32 34 36 37 38 38 36 35 33 30 27 26 26 25 22 20 18 15 15 15 15 15 16 16 17 17 18 19 19 21 22 23 24 24 25 26 26 26 25 25 24 22 20 18 17 15 14 14 15 16 17 19 19 19 19 19 20
3 3 3 3 2 2 2 2 2 2 2 2 2 3 4 4 5 7 8 10 12 14 17 20 24 28 32 36 38 39 38 39 39 38 36 33 31 29 27 24 22 21 19 17 16 14 13 13 14 15 15 16 17 17 17 18 19 20 21 22 24 25 26 26 26 25 24 23 21 20 18 17 16 15 14 14 14 15 16 18 18 18 18 19 20 21
3 3 2 2 2 1 1 2 2 2 3 4 5 6 7 8 10 12 14 17 20 23 27 31 34 36 36 38 38 38 38 37 35 34 33 30 27 24 21 19 18 16 14 14 13 12 13 13 14 15 16 16 17 17 17 18 19 20 22 24 26 27 27 25 24 22 21 20 18 17 17 16 16 16 15 15 16 16 17 17 17 17 18 19 21 23
2 2 2 2 1 1 2 2 3 4 5 7 8 9 11 14 16 19 22 26 29 31 33 36 39 41 42 40 37 35 36 32 30 28 28 25 22 19 15 14 13 13 12 12 13 13 14 15 16 16 17 17 17 17 18 19 21 23 25 27 27 26 24 22 21 19 18 17 17 17 16 16 16 16 16 16 16 16 16 16 16 16 17 19 21 24
1 1 2 2 2 2 4 5 7 8 10 11 12 14 17 19 23 27 30 33 35 36 37 38 39 40 41 38 35 32 30 26 24 24 22 19 17 14 11 11 11 12 12 13 14 15 16 16 17 17 17 17 17 18 19 21 23 26 28 28 26 23 21 19 18 17 16 16 16 15 15 15 15 15 15 15 15 15 15 15 15 15 16 18 20 22
1 2 3 3 4 5 7 9 11 13 15 16 19 22 25 27 30 33 35 35 36 37 38 40 39 37 35 33 30 26 21 19 18 17 16 15 13 11 10 11 11 13 14 15 16 17 17 18 18 18 17 18 18 19 21 23 26 28 29 26 22 19 17 16 15 15 14 14 13 13 13 13 13 13 13 13 13 13 13 13 14 14 15 16 17 18
2 3 4 6 7 9 11 13 16 18 20 23 26 29 31 33 35 36 35 35 35 35 36 36 34 31 29 28 24 19 15 14 13 12 10 11 11 11 11 12 14 15 17 17 18 18 18 18 18 18 17 18 19 20 23 26 28 28 25 21 18 16 15 14 13 12 12 11 11 11 11 11 11 11 11 12 12 12 13 13 14 15 15 15 15 16
4 5 6 9 11 14 16 19 22 25 27 30 32 34 35 36 36 35 34 34 33 33 33 30 28 25 24 20 16 11 9 9 9 10 10 12 12 13 13 15 16 18 19 19 19 19 19 18 17 17 17 18 20 22 25 28 28 25 21 17 15 14 13 12 11 10 9 9 10 10 10 10 10 11 11 12 13 13 14 15 15 16 16 16 16 17
7 9 10 13 16 19 23 26 28 30 31 34 35 36 37 37 36 34 33 32 31 29 26 22 20 18 15 12 10 8 8 9 10 11 12 14 14 14 15 16 18 19 19 19 19 18 18 17 16 16 17 18 21 24 27 28 25 21 17 15 14 13 12 10 9 8 8 9 9 10 10 10 10 11 12 13 14 15 15 16 16 16 17 17 17 17
11 13 16 19 22 26 29 31 32 32 33 34 34 34 34 32 31 29 27 26 24 21 18 15 13 11 9 8 8 9 10 11 11 12 13 14 15 15 16 17 18 19 19 19 18 17 17 16 15 16 17 19 23 26 27 25 21 17 15 14 13 11 10 8 8 7 8 9 10 11 11 10 11 12 14 15 16 17 17 17 17 17 18 18 17 17
17 20 23 26 29 32 34 34 34 33 33 33 32 30 28 25 22 21 20 18 15 13 11 10 10 9 8 9 10 11 11 12 13 13 14 15 15 15 16 17 18 18 18 18 18 17 16 15 15 16 18 21 24 26 25 21 18 15 14 13 11 10 8 7 7 8 9 11 12 12 12 11 12 13 15 16 18 18 18 18 18 18 18 18 17 16
25 28 30 33 34 35 36 34 33 32 30 29 27 24 21 18 16 15 14 12 10 9 9 9 9 10 10 11 12 12 12 13 13 14 14 15 15 15 16 17 17 18 18 18 17 16 15 15 16 17 20 23 25 25 22 18 15 14 13 12 10 8 7 7 8 9 11 12 13 13 13 12 12 13 14 16 18 19 19 19 18 18 18 17 16 16
31 33 35 35 36 35 34 31 29 26 24 21 19 17 15 13 12 11 10 9 8 9 10 10 10 10 11 12 12 13 13 13 14 14 14 15 16 16 16 16 17 18 18 17 17 16 15 15 17 19 22 24 24 22 18 16 14 13 12 10 9 8 7 8 9 10 12 13 14 15 15 14 13 13 14 15 17 18 19 19 18 17 17 16 15 15
34 35 35 35 33 31 28 25 22 19 16 14 13 12 11 10 10 9 8 8 8 10 11 11 11 12 12 12 13 14 14 14 14 14 14 15 16 16 16 16 17 17 18 17 16 15 15 16 18 20 23 23 22 19 16 15 14 13 11 9 8 8 8 9 10 11 13 15 16 17 16 15 13 12 12 14 16 18 19 18 17 16 15 15 14 13
34 33 31 30 27 24 21 17 15 13 11 11 10 10 10 10 10 10 9 9 10 11 12 12 13 13 13 13 14 15 15 15 14 14 15 16 16 16 16 17 17 18 18 17 16 16 16 17 19 21 22 21 19 17 16 16 14 12 10 8 8 8 8 9 10 12 14 16 17 18 17 15 12 11 11 13 15 17 18 18 17 16 14 13 13 12
30 27 25 22 20 17 14 13 11 10 10 11 11 11 12 12 12 12 12 13 13 14 14 14 14 14 14 15 15 16 15 15 15 15 16 16 16 16 17 18 18 18 17 16 16 16 18 19 21 21 21 19 17 16 16 16 13 11 8 7 7 8 8 9 11 13 15 17 18 18 17 14 11 10 10 12 14 16 17 17 16 15 14 13 12 11
25 22 19 17 15 14 13 12 12 13 13 14 14 15 15 15 15 16 16 16 16 16 16 16 15 15 16 16 17 17 16 16 16 16 17 17 17 17 18 18 18 18 17 16 16 17 19 21 21 21 19 16 16 16 16 14 12 9 7 7 8 8 9 10 11 13 16 17 17 16 15 12 11 9 10 11 12 14 15 15 15 14 13 12 11 11
20 18 16 15 15 15 15 16 16 17 17 17 18 18 18 18 18 18 18 18 18 18 18 17 17 17 17 17 18 17 17 16 16 16 16 17 17 17 18 19 18 17 15 15 16 18 20 21 21 19 16 15 14 15 15 13 10 8 7 7 8 9 9 10 12 13 15 15 15 15 14 12 11 11 10 11 11 12 13 14 14 14 13 13 12 11
17 16 16 16 17 18 19 20 20 20 20 20 20 19 19 19 19 19 19 19 19 19 19 19 18 18 18 18 18 18 17 17 17 16 16 16 17 17 18 18 17 16 15 16 17 20 21 21 20 17 14 14 14 14 14 12 9 8 7 8 9 9 9 9 11 13 14 14 14 14 13 13 13 12 12 11 11 11 12 13 13 13 13 13 13 12
17 18 19 20 20 21 21 22 22 21 21 20 20 20 20 20 20 19 19 19 20 20 20 20 20 19 19 19 18 18 18 17 17 16 15 16 17 17 18 17 16 15 15 17 19 21 21 20 18 16 14 13 14 14 13 11 9 8 8 9 10 10 9 9 10 12 13 13 13 13 12 13 13 13 13 12 12 11 11 12 12 12 13 13 13 12
20 21 21 22 22 22 22 21 21 20 20 20 20 19 19 19 19 19 19 19 19 19 20 20 20 20 19 19 19 18 17 17 15 14 14 15 17 17 17 16 15 15 16 18 19 20 20 19 17 15 14 14 15 14 12 10 9 8 9 10 10 10 8 8 10 12 13 13 12 12 11 12 13 13 13 13 13 12 12 12 12 12 12 12 12 13
22 22 21 21 21 20 19 19 18 18 18 18 18 18 18 18 18 18 18 18 18 18 18 19 19 19 19 19 18 18 17 16 14 13 14 15 17 17 16 15 15 15 16 18 20 20 19 18 16 14 14 15 15 14 11 9 8 8 9 10 9 9 7 8 10 12 14 13 12 11 10 11 12 14 15 15 15 14 14 13 13 13 12 12 12 13
21 20 19 18 18 17 16 15 15 15 15 15 15 15 15 15 15 15 16 16 16 16 17 17 17 17 18 18 17 17 16 14 13 13 13 15 16 17 15 15 14 15 17 18 19 19 18 16 15 15 15 16 15 13 10 8 8 8 9 9 9 8 7 7 9 12 14 13 12 10 10 11 13 14 15 16 16 15 14 14 14 14 13 13 13 13
18 17 16 15 14 13 12 12 12 13 13 13 14 13 13 14 14 15 15 15 15 15 16 16 16 17 17 17 17 16 15 14 13 12 13 15 16 16 14 14 14 16 17 19 19 18 17 16 15 15 15 16 15 12 9 9 8 9 9 9 9 9 8 8 9 11 12 11 10 9 9 10 11 12 13 14 14 14 14 14 14 14 14 14 13 13
15 14 13 12 12 11 11 12 12 12 13 13 14 14 15 15 16 16 16 16 16 16 16 16 16 17 17 17 16 16 15 13 13 13 14 15 15 15 14 14 15 16 18 19 19 18 16 15 15 15 16 16 14 11 9 8 9 9 9 8 8 8 8 9 9 9 9 8 8 7 7 7 8 9 9 10 10 10 11 12 12 13 14 14 14 14
12 12 11 11 11 12 13 14 14 15 16 16 17 18 19 19 18 18 18 18 18 18 17 17 17 17 17 17 16 16 14 13 13 13 14 15 15 14 14 14 16 17 19 19 18 17 16 15 15 15 16 16 14 11 9 9 9 9 9 7 8 8 9 10 10 9 7 7 7 7 6 6 6 6 6 6 6 6 7 8 9 10 11 12 13 14
11 11 12 13 14 15 17 18 19 20 21 21 21 22 22 22 21 21 21 21 21 21 20 19 19 18 18 17 16 15 14 13 12 13 14 14 14 13 13 15 16 18 19 18 17 16 15 15 15 15 16 14 12 10 9 8 9 8 7 6 7 8 9 10 10 9 8 7 7 7 7 6 5 4 4 4 4 4 4 6 6 7 7 8 10 11
12 14 15 17 19 20 21 22 23 23 23 24 24 24 24 24 24 25 25 25 25 24 23 23 22 20 19 18 16 15 14 13 13 13 13 13 13 13 13 15 17 18 19 17 16 15 15 15 15 15 15 14 12 10 9 8 8 7 6 6 6 6 7 8 9 9 8 8 7 7 6 6 5 4 4 4 4 4 4 5 6 6 6 7 7 8
16 18 20 21 22 23 23 24 23 23 23 24 24 25 25 26 26 27 28 28 28 27 26 25 24 23 21 19 17 15 14 13 13 13 13 13 13 13 14 16 17 18 17 16 15 15 15 15 15 15 15 13 12 10 9 8 8 7 6 6 5 5 5 8 8 8 7 7 7 6 6 6 6 6 6 6 6 6 6 6 6 7 7 7 7 8
20 21 22 23 23 23 23 23 23 23 23 24 25 25 26 26 27 28 28 29 28 28 27 26 25 24 22 19 17 15 14 14 14 14 13 13 13 13 14 16 17 17 16 15 14 14 15 15 15 15 15 13 11 10 9 8 7 7 7 6 5 4 5 6 7 7 7 7 7 7 7 7 8 8 9 9 9 8 8 8 8 8 8 8 8 8
21 22 23 23 23 22 22 23 23 24 24 25 26 27 27 28 28 29 30 29 29 28 27 26 26 24 22 19 17 16 15 14 14 14 13 14 14 15 15 16 16 16 15 14 14 14 14 14 15 15 15 13 12 10 9 8 8 7 7 7 6 5 5 6 6 6 7 7 7 8 8 10 10 11 11 11 10 10 10 9 9 9 9 9 9 9
21 21 22 21 21 22 22 23 25 26 27 28 29 29 30 30 31 31 32 31 30 28 27 27 26 25 22 20 18 17 15 14 14 13 14 15 16 16 17 16 16 15 14 14 14 14 14 15 15 15 14 13 12 10 9 8 8 8 8 7 6 5 5 6 6 6 6 7 8 9 10 11 12 13 13 12 12 12 11 11 11 10 10 10 10 10
20 20 20 20 21 22 23 26 27 29 29 30 30 31 32 33 33 33 32 31 30 29 28 27 27 25 22 20 18 17 15 14 13 13 14 16 17 18 17 16 16 15 14 14 14 14 15 15 15 14 13 13 12 12 10 9 9 9 9 8 7 6 5 6 6 6 7 8 9 11 12 13 14 14 14 14 14 14 13 13 13 12 12 11 11 11
18 18 19 20 21 22 25 27 29 30 30 31 31 32 34 35 35 35 33 31 30 30 29 28 27 25 22 20 18 17 15 13 13 14 15 18 18 18 17 16 15 14 14 14 14 15 15 15 15 14 12 11 11 12 11 10 10 10 10 8 7 6 5 6 7 7 9 10 11 13 13 14 14 15 15 16 16 16 15 15 15 14 14 14 13 13
17 17 18 19 20 22 24 27 28 30 31 31 32 34 35 36 36 36 34 33 32 31 30 29 27 25 21 19 18 16 14 13 14 15 17 18 18 18 16 15 14 14 14 14 14 15 15 15 15 14 12 11 10 10 11 10 10 10 9 7 6 6 6 7 8 9 11 12 13 14 14 15 16 17 18 18 17 17 17 17 17 17 16 16 15 15
16 16 17 18 19 20 22 24 26 28 30 31 33 34 36 36 36 35 34 34 33 32 30 28 25 22 19 18 16 15 14 14 15 17 18 18 17 16 14 14 13 13 13 14 14 15 15 14 14 14 13 12 11 10 10 10 10 9 8 7 6 7 7 8 10 11 12 13 14 15 16 17 18 19 19 18 18 18 18 19 19 19 18 17 17 17
Height
5606 5605 5603 5601 5600 5597 5596 5594 5592 5590 5587 5586 5584 5582 5580 5577 5576 5574 5572 5570 5568 5566 5565 5563 5561 5559 5557 5555 5552 5550 5548 5546 5544 5542 5541 5539 5538 5536 5534 5532 5531 5528 5526 5524 5522 5520 5518 5516 5514 5512 5510 5508 5506 5504 5502 5501 5499 5497 5496 5494 5492 5491 5489 5487 5485 5483 5481 5480 5478 5476 5473 5471 5469 5467 5466 5465 5463 5461 5459 5459 5458 5457 5456 5455 5454 5454
5602 5600 5598 5596 5595 5593 5591 5589 5588 5585 5583 5581 5579 5577 5575 5573 5571 5569 5567 5565 5563 5561 5559 5557 5555 5553 5551 5549 5546 5544 5541 5539 5537 5536 5534 5533 5531 5529 5527 5525 5523 5521 5519 5516 5514 5512 5510 5508 5506 5504 5502 5500 5498 5496 5494 5492 5490 5488 5486 5485 5483 5481 5480 5478 5476 5474 5472 5470 5467 5465 5463 5461 5459 5457 5456 5454 5452 5450 5449 5448 5447 5446 5445 5444 5443 5443
5597 5595 5593 5592 5590 5588 5586 5584 5582 5581 5578 5576 5574 5572 5570 5568 5566 5564 5562 5560 5557 5556 5553 5551 5549 5547 5545 5543 5540 5537 5534 5532 5530 5529 5527 5526 5524 5522 5520 5518 5516 5514 5511 5509 5506 5504 5501 5500 5497 5496 5494 5491 5489 5487 5485 5483 5481 5480 5477 5476 5474 5472 5470 5468 5466 5464 5462 5460 5457 5455 5453 5451 5449 5447 5446 5444 5442 5440 5439 5438 5437 5436 5435 5435 5434 5433
5592 5590 5588 5587 5585 5583 5581 5579 5577 5575 5573 5571 5568 5566 5565 5563 5561 5559 5557 5555 5552 5550 5548 5546 5544 5541 5539 5536 5534 5531 5527 5525 5523 5521 5520 5519 5517 5515 5513 5511 5508 5506 5503 5501 5498 5496 5493 5491 5489 5487 5485 5483 5481 5479 5476 5475 5472 5471 5468 5466 5465 5462 5461 5459 5457 5455 5452 5450 5448 5446 5444 5442 5440 5439 5437 5435 5433 5431 5430 5429 5428 5427 5426 5426 5426 5425
5588 5585 5583 5581 5580 5578 5576 5575 5572 5570 5567 5565 5563 5561 5559 5557 5555 5553 5551 5549 5547 5545 5542 5540 5538 5535 5533 5530 5527 5523 5520 5517 5515 5513 5512 5511 5509 5507 5505 5503 5501 5498 5495 5492 5490 5487 5485 5482 5480 5478 5476 5474 5472 5470 5468 5466 5464 5461 5460 5457 5456 5454 5451 5450 5447 5446 5443 5441 5439 5437 5436 5434 5432 5431 5429 5427 5425 5423 5422 5421 5420 5420 5419 5419 5418 5417
5583 5581 5578 5576 5575 5573 5571 5569 5567 5565 5562 5560 5558 5556 5554 5551 5549 5547 5545 5543 5541 5539 5536 5534 5531 5529 5526 5523 5520 5516 5513 5510 5507 5506 5504 5503 5501 5500 5497 5495 5492 5490 5487 5484 5481 5478 5476 5474 5471 5469 5467 5465 5463 5461 5459 5457 5455 5453 5451 5449 5447 5445 5443 5441 5439 5437 5435 5433 5431 5430 5428 5426 5425 5423 5422 5420 5418 5416 5415 5414 5413 5413 5412 5411 5411 5410
5578 5576 5574 5571 5569 5568 5566 5565 5562 5560 5556 5554 5552 5550 5548 5546 5544 5541 5539 5536 5534 5532 5530 5527 5525 5523 5520 5516 5512 5509 5505 5502 5500 5498 5496 5495 5493 5491 5489 5487 5484 5481 5478 5476 5473 5470 5467 5465 5463 5461 5459 5456 5455 5453 5451 5449 5447 5445 5443 5441 5439 5437 5436 5434 5432 5430 5428 5426 5424 5422 5421 5419 5418 5417 5415 5413 5411 5410 5409 5408 5407 5406 5406 5405 5404 5404
5572 5571 5570 5567 5565 5562 5561 5560 5557 5555 5551 5548 5546 5544 5542 5540 5538 5536 5533 5531 5528 5526 5523 5521 5518 5516 5513 5510 5506 5501 5497 5494 5492 5490 5488 5486 5485 5483 5481 5479 5476 5473 5470 5467 5464 5461 5459 5457 5455 5452 5451 5449 5446 5445 5443 5441 5439 5437 5436 5434 5432 5430 5428 5427 5425 5423 5421 5419 5418 5416 5415 5413 5412 5411 5409 5407 5405 5404 5403 5402 5401 5401 5400 5399 5398 5398
5567 5565 5564 5562 5560 5558 5555 5554 5552 5550 5546 5542 5540 5538 5536 5533 5531 5529 5527 5525 5523 5520 5517 5514 5511 5509 5506 5503 5499 5495 5491 5487 5484 5482 5481 5479 5477 5475 5473 5471 5468 5465 5461 5458 5456 5453 5451 5448 5446 5445 5443 5441 5439 5437 5436 5434 5432 5431 5429 5427 5426 5424 5422 5420 5418 5416 5415 5413 5412 5410 5409 5407 5406 5405 5403 5401 5399 5398 5397 5396 5396 5395 5394 5393 5392 5392
5562 5560 5558 5556 5555 5553 5551 5548 5546 5544 5541 5537 5534 5532 5530 5527 5524 5521 5520 5519 5517 5514 5511 5508 5505 5503 5500 5496 5492 5489 5485 5481 5477 5475 5473 5472 5470 5467 5465 5463 5460 5456 5453 5450 5447 5445 5443 5441 5439 5437 5436 5434 5432 5430 5429 5427 5426 5424 5423 5421 5420 5418 5416 5414 5412 5411 5409 5407 5406 5405 5403 5401 5400 5398 5397 5395 5394 5393 5392 5391 5391 5390 5389 5388 5387 5387
5556 5555 5553 5551 5549 5547 5545 5543 5541 5538 5535 5532 5529 5526 5524 5521 5518 5516 5513 5511 5510 5508 5505 5501 5499 5497 5494 5490 5486 5482 5479 5476 5472 5469 5466 5464 5462 5460 5457 5455 5452 5449 5446 5443 5440 5437 5435 5434 5432 5430 5429 5427 5426 5424 5423 5421 5420 5418 5417 5415 5413 5412 5410 5408 5407 5405 5404 5402 5401 5399 5397 5396 5395 5393 5391 5390 5388 5388 5388 5387 5386 5385 5384 5383 5382 5382
5551 5549 5546 5545 5543 5541 5540 5537 5535 5532 5530 5527 5524 5520 5517 5515 5512 5510 5507 5505 5503 5501 5499 5496 5492 5490 5488 5485 5480 5475 5471 5469 5466 5464 5461 5457 5454 5451 5449 5447 5444 5441 5439 5437 5434 5431 5429 5427 5426 5424 5423 5421 5420 5419 5417 5416 5415 5413 5411 5409 5408 5406 5405 5403 5401 5400 5398 5397 5395 5394 5392 5391 5389 5388 5386 5386 5385 5384 5384 5383 5382 5381 5380 5379 5379 5378
5545 5543 5541 5539 5537 5536 5534 5531 5528 5526 5524 5521 5518 5514 5511 5508 5505 5503 5501 5498 5496 5494 5492 5489 5486 5482 5480 5477 5473 5468 5464 5462 5460 5458 5455 5451 5447 5444 5441 5439 5436 5434 5432 5431 5428 5425 5423 5422 5421 5419 5417 5416 5415 5414 5412 5411 5409 5407 5406 5404 5402 5401 5400 5398 5396 5395 5393 5392 5390 5389 5388 5386 5385 5384 5382 5381 5381 5381 5380 5380 5378 5377 5377 5376 5375 5374
5540 5538 5535 5533 5531 5530 5528 5525 5522 5519 5517 5514 5511 5508 5504 5501 5498 5495 5493 5491 5488 5485 5484 5482 5479 5476 5472 5469 5464 5460 5456 5455 5454 5452 5449 5445 5440 5437 5435 5433 5430 5427 5426 5425 5423 5420 5417 5416 5416 5414 5412 5411 5410 5409 5407 5406 5404 5402 5401 5399 5398 5396 5395 5394 5392 5390 5389 5387 5386 5385 5384 5382 5381 5381 5380 5379 5378 5378 5377 5376 5375 5374 5374 5372 5371 5371
5535 5532 5529 5527 5525 5523 5521 5518 5515 5512 5509 5507 5504 5501 5497 5493 5490 5487 5485 5482 5479 5476 5475 5473 5471 5468 5465 5461 5456 5452 5449 5448 5447 5446 5443 5440 5434 5430 5428 5428 5426 5422 5420 5420 5418 5415 5413 5412 5411 5409 5408 5407 5405 5404 5402 5401 5399 5398 5396 5395 5394 5392 5391 5389 5388 5386 5385 5383 5382 5381 5381 5380 5379 5378 5377 5376 5376 5375 5374 5373 5373 5372 5371 5370 5369 5368
5528 5526 5523 5521 5518 5516 5514 5511 5507 5504 5501 5498 5495 5492 5489 5486 5482 5478 5476 5473 5471 5468 5466 5464 5463 5461 5458 5453 5448 5444 5442 5442 5441 5438 5437 5435 5429 5424 5422 5422 5421 5418 5416 5415 5413 5411 5409 5408 5406 5405 5404 5402 5401 5400 5398 5396 5395 5394 5393 5391 5390 5389 5387 5386 5384 5382 5381 5380 5380 5379 5378 5377 5376 5376 5375 5374 5373 5373 5372 5371 5370 5370 5369 5368 5367 5366
5521 5519 5516 5513 5511 5508 5506 5503 5500 5496 5493 5490 5487 5484 5481 5478 5474 5471 5467 5464 5462 5460 5457 5455 5454 5453 5451 5446 5440 5435 5434 5436 5435 5432 5431 5429 5425 5420 5417 5417 5416 5414 5412 5411 5409 5407 5405 5404 5402 5401 5400 5398 5397 5396 5394 5393 5391 5391 5389 5388 5387 5385 5383 5382 5381 5380 5379 5378 5377 5376 5376 5375 5374 5373 5373 5372 5371 5370 5370 5369 5368 5367 5366 5366 5365 5364
5514 5512 5509 5506 5503 5500 5498 5495 5492 5489 5485 5482 5479 5476 5472 5469 5466 5463 5460 5456 5453 5451 5449 5447 5445 5444 5443 5441 5435 5430 5426 5429 5429 5427 5425 5424 5421 5416 5413 5412 5411 5410 5409 5407 5405 5403 5402 5400 5399 5397 5396 5395 5393 5392 5391 5389 5388 5387 5386 5385 5384 5382 5380 5379 5378 5377 5376 5376 5375 5374 5374 5373 5372 5371 5371 5370 5369 5368 5367 5367 5366 5366 5365 5364 5363 5362
5507 5505 5502 5499 5495 5492 5489 5487 5484 5481 5477 5473 5470 5467 5465 5461 5458 5455 5452 5449 5446 5443 5441 5440 5438 5436 5434 5433 5429 5425 5421 5422 5423 5421 5421 5420 5417 5413 5410 5409 5408 5406 5405 5404 5401 5400 5398 5397 5395 5394 5392 5391 5390 5388 5387 5386 5386 5385 5383 5382 5380 5379 5377 5376 5376 5375 5374 5374 5373 5372 5371 5371 5370 5369 5369 5368 5367 5366 5366 5365 5364 5364 5363 5362 5361 5361
5499 5497 5495 5492 5488 5484 5480 5477 5475 5472 5469 5465 5462 5459 5456 5453 5451 5448 5445 5441 5439 5436 5434 5433 5431 5430 5427 5426 5423 5420 5417 5417 5417 5416 5416 5415 5413 5410 5407 5406 5404 5403 5402 5400 5398 5396 5395 5393 5391 5390 5389 5388 5386 5385 5384 5383 5383 5381 5380 5379 5377 5376 5375 5375 5374 5373 5372 5372 5371 5371 5370 5369 5368 5367 5367 5366 5365 5364 5364 5363 5362 5362 5361 5361 5360 5360
5491 5488 5486 5484 5480 5476 5472 5469 5466 5463 5460 5456 5453 5450 5447 5445 5443 5441 5437 5435 5433 5431 5428 5427 5426 5424 5422 5421 5418 5415 5412 5412 5412 5412 5411 5410 5409 5406 5404 5402 5401 5400 5399 5397 5395 5393 5391 5390 5388 5387 5386 5384 5383 5382 5381 5381 5380 5379 5377 5376 5375 5374 5373 5373 5372 5371 5371 5370 5370 5369 5368 5367 5366 5366 5365 5364 5363 5363 5362 5361 5361 5360 5360 5360 5359 5358
5483 5481 5478 5475 5471 5468 5465 5461 5458 5455 5451 5448 5445 5443 5440 5437 5436 5433 5431 5428 5427 5425 5423 5422 5420 5419 5417 5416 5413 5410 5408 5408 5408 5407 5406 5405 5404 5402 5401 5399 5398 5397 5396 5394 5392 5390 5388 5386 5385 5384 5382 5381 5381 5380 5379 5378 5377 5376 5375 5373 5373 5372 5372 5371 5371 5370 5369 5369 5368 5367 5366 5366 5365 5364 5363 5363 5362 5361 5361 5360 5359 5359 5359 5359 5358 5357
5476 5473 5470 5466 5463 5459 5456 5453 5450 5446 5442 5440 5437 5435 5432 5430 5429 5427 5425 5423 5421 5420 5419 5417 5416 5414 5413 5411 5409 5406 5405 5404 5403 5403 5402 5401 5399 5398 5397 5396 5394 5393 5392 5391 5389 5387 5385 5383 5382 5380 5379 5379 5378 5377 5377 5376 5375 5373 5372 5371 5371 5371 5370 5369 5369 5368 5368 5367 5366 5366 5365 5364 5364 5363 5362 5361 5361 5360 5360 5358 5358 5358 5357 5357 5357 5356
5468 5465 5462 5458 5455 5452 5448 5445 5442 5439 5436 5433 5430 5427 5425 5423 5421 5420 5419 5418 5417 5416 5414 5413 5411 5410 5409 5407 5406 5403 5401 5400 5399 5398 5397 5396 5395 5394 5393 5392 5391 5390 5388 5387 5385 5384 5382 5380 5379 5377 5376 5376 5376 5375 5374 5373 5372 5371 5370 5370 5369 5369 5368 5368 5367 5367 5366 5366 5365 5364 5364 5363 5362 5361 5361 5360 5359 5359 5358 5357 5357 5356 5356 5356 5355 5355
5461 5458 5455 5451 5448 5445 5441 5438 5435 5432 5430 5427 5425 5422 5420 5417 5416 5414 5413 5413 5412 5411 5410 5409 5407 5406 5405 5404 5402 5399 5397 5396 5395 5394 5393 5391 5391 5390 5389 5388 5387 5386 5385 5383 5382 5381 5379 5377 5376 5375 5374 5373 5373 5373 5372 5371 5370 5369 5369 5368 5368 5367 5367 5366 5366 5366 5365 5364 5364 5363 5362 5362 5361 5360 5360 5359 5358 5357 5357 5356 5356 5356 5355 5355 5354 5353
5453 5450 5447 5444 5441 5438 5435 5431 5429 5426 5424 5422 5420 5418 5415 5413 5411 5410 5409 5408 5408 5407 5406 5404 5403 5402 5401 5400 5398 5396 5394 5392 5390 5389 5388 5387 5386 5386 5385 5384 5383 5382 5381 5380 5379 5377 5376 5375 5373 5372 5371 5371 5371 5371 5370 5369 5368 5368 5367 5367 5366 5366 5366 5365 5365 5364 5363 5363 5362 5362 5361 5361 5360 5359 5359 5358 5357 5356 5356 5356 5355 5355 5354 5354 5353 5352
5446 5442 5440 5437 5434 5431 5428 5425 5423 5421 5419 5417 5415 5413 5411 5410 5408 5406 5404 5404 5404 5403 5401 5399 5398 5397 5396 5395 5394 5392 5390 5388 5386 5385 5385 5384 5383 5382 5381 5381 5380 5379 5378 5377 5376 5375 5373 5372 5371 5370 5369 5369 5369 5369 5368 5367 5367 5366 5366 5366 5365 5365 5364 5364 5363 5362 5362 5361 5361 5360 5360 5359 5359 5358 5358 5357 5357 5356 5356 5356 5355 5354 5353 5352 5352 5352
5438 5436 5433 5430 5427 5425 5422 5419 5417 5416 5414 5413 5411 5409 5407 5406 5405 5403 5401 5400 5399 5398 5396 5395 5394 5392 5391 5391 5389 5388 5386 5385 5383 5381 5381 5380 5379 5379 5378 5377 5376 5376 5375 5374 5373 5372 5371 5370 5368 5368 5367 5367 5367 5367 5366 5366 5365 5365 5364 5364 5364 5363 5363 5362 5361 5361 5361 5360 5360 5359 5359 5358 5358 5357 5357 5356 5356 5356 5356 5355 5354 5353 5352 5352 5351 5351
5432 5429 5427 5424 5422 5419 5417 5414 5412 5410 5409 5408 5406 5405 5403 5402 5401 5400 5398 5397 5395 5393 5391 5390 5389 5388 5387 5386 5386 5384 5383 5381 5379 5378 5377 5377 5376 5376 5375 5374 5373 5373 5372 5372 5371 5370 5369 5367 5366 5366 5366 5366 5365 5365 5365 5364 5364 5363 5363 5363 5362 5362 5361 5361 5360 5360 5359 5359 5358 5358 5357 5357 5356 5356 5356 5355 5355 5354 5354 5353 5353 5352 5352 5351 5351 5351
5427 5424 5421 5419 5416 5414 5412 5409 5407 5405 5404 5403 5401 5400 5399 5397 5396 5395 5393 5393 5391 5390 5388 5386 5386 5385 5384 5383 5381 5381 5379 5377 5376 5375 5375 5374 5373 5373 5372 5371 5371 5370 5370 5369 5368 5367 5366 5365 5364 5364 5364 5364 5364 5363 5363 5363 5362 5362 5361 5361 5361 5361 5360 5359 5359 5359 5358 5358 5357 5357 5356 5356 5356 5355 5355 5354 5353 5353 5352 5352 5351 5351 5351 5351 5350 5350
5423 5420 5417 5415 5412 5410 5407 5405 5402 5401 5399 5398 5396 5395 5394 5392 5391 5390 5389 5388 5387 5386 5384 5383 5381 5381 5380 5379 5378 5377 5376 5374 5373 5372 5372 5371 5371 5370 5370 5369 5368 5368 5367 5367 5366 5366 5365 5363 5362 5362 5362 5362 5362 5362 5362 5361 5361 5361 5360 5360 5360 5359 5359 5358 5358 5357 5357 5357 5356 5356 5356 5355 5355 5354 5354 5353 5353 5352 5352 5351 5351 5351 5350 5350 5350 5349
5419 5416 5414 5411 5408 5406 5403 5400 5398 5396 5394 5393 5391 5390 5389 5387 5386 5385 5384 5383 5383 5382 5380 5379 5378 5377 5376 5376 5375 5373 5372 5371 5370 5370 5369 5369 5368 5368 5367 5366 5366 5365 5365 5365 5364 5364 5363 5362 5361 5360 5360 5360 5361 5361 5361 5360 5360 5359 5359 5359 5358 5358 5357 5357 5357 5356 5356 5356 5356 5355 5355 5354 5354 5353 5353 5352 5352 5352 5351 5351 5351 5350 5350 5350 5349 5349
5414 5411 5409 5406 5404 5401 5399 5396 5394 5391 5389 5388 5386 5385 5384 5382 5381 5381 5380 5379 5378 5377 5376 5375 5374 5373 5372 5372 5371 5370 5369 5368 5367 5367 5366 5366 5366 5365 5365 5364 5364 5363 5362 5362 5362 5361 5361 5360 5359 5359 5359 5359 5359 5359 5359 5359 5359 5358 5358 5358 5357 5357 5356 5356 5356 5356 5356 5355 5355 5354 5354 5353 5353 5353 5352 5352 5351 5351 5351 5351 5350 5350 5350 5349 5349 5349
5408 5406 5404 5401 5399 5396 5394 5391 5389 5387 5385 5383 5381 5380 5379 5378 5376 5376 5375 5374 5373 5373 5372 5371 5370 5369 5369 5368 5367 5367 5366 5365 5364 5364 5364 5363 5363 5363 5362 5362 5361 5361 5361 5360 5360 5359 5359 5358 5358 5357 5357 5357 5358 5358 5358 5358 5357 5357 5357 5357 5356 5356 5356 5356 5355 5355 5355 5354 5354 5353 5353 5352 5352 5352 5352 5351 5351 5351 5351 5350 5350 5350 5349 5349 5349 5349
5403 5401 5398 5396 5394 5391 5389 5387 5385 5383 5381 5379 5377 5376 5374 5373 5372 5371 5371 5370 5369 5368 5368 5367 5367 5366 5366 5365 5364 5363 5363 5362 5361 5361 5361 5361 5361 5361 5360 5360 5359 5359 5358 5358 5357 5357 5357 5356 5356 5356 5356 5356 5356 5357 5356 5356 5356 5356 5356 5356 5356 5356 5355 5355 5355 5354 5354 5353 5353 5352 5352 5352 5351 5351 5351 5351 5351 5350 5350 5350 5349 5349 5349 5349 5349 5348
5398 5396 5394 5391 5389 5387 5385 5383 5381 5379 5376 5375 5373 5371 5370 5369 5368 5367 5366 5366 5365 5364 5364 5363 5363 5362 5362 5361 5361 5360 5360 5359 5359 5358 5358 5358 5358 5358 5358 5357 5357 5357 5356 5356 5356 5355 5355 5355 5355 5355 5355 5355 5355 5355 5355 5355 5355 5355 5355 5355 5355 5355 5355 5354 5354 5354 5353 5353 5352 5352 5351 5351 5351 5351 5351 5350 5350 5350 5350 5349 5349 5349 5349 5348 5348 5348
5394 5391 5389 5387 5385 5383 5381 5379 5377 5375 5373 5371 5369 5368 5366 5365 5364 5363 5362 5362 5361 5361 5360 5360 5359 5359 5359 5358 5358 5357 5357 5356 5356 5356 5356 5356 5356 5356 5356 5355 5355 5355 5354 5354 5354 5354 5353 5353 5353 5353 5354 5354 5354 5354 5354 5354 5354 5354 5355 5355 5354 5354 5354 5354 5354 5353 5353 5353 5352 5351 5351 5351 5350 5350 5350 5350 5350 5349 5349 5349 5349 5348 5348 5348 5348 5348
5389 5387 5385 5382 5381 5378 5376 5374 5373 5371 5369 5367 5366 5364 5362 5361 5360 5359 5358 5358 5357 5357 5356 5356 5356 5356 5355 5355 5355 5354 5354 5354 5353 5353 5353 5353 5353 5353 5353 5353 5352 5352 5352 5352 5352 5352 5352 5352 5352 5352 5352 5353 5353 5353 5353 5353 5353 5354 5354 5354 5354 5354 5354 5353 5353 5353 5353 5352 5351 5351 5351 5350 5350 5350 5350 5350 5349 5349 5349 5348 5348 5348 5348 5348 5347 5347
5385 5383 5381 5379 5376 5375 5372 5371 5369 5367 5365 5363 5361 5360 5358 5357 5356 5355 5354 5354 5353 5353 5353 5352 5352 5352 5352 5352 5352 5351 5351 5351 5351 5351 5351 5351 5351 5351 5351 5351 5351 5350 5350 5350 5351 5351 5351 5351 5351 5351 5351 5351 5352 5352 5352 5352 5352 5353 5353 5353 5353 5353 5353 5353 5353 5352 5352 5351 5351 5351 5350 5350 5349 5349 5349 5349 5349 5349 5348 5348 5348 5348 5347 5347 5347 5347
5381 5379 5377 5375 5373 5371 5368 5366 5364 5362 5361 5359 5357 5356 5355 5353 5352 5351 5351 5350 5349 5349 5349 5349 5349 5349 5349 5349 5349 5349 5349 5348 5348 5348 5349 5349 5349 5349 5349 5349 5349 5348 5348 5349 5349 5349 5350 5350 5350 5350 5350 5351 5351 5351 5351 5351 5351 5352 5352 5352 5352 5352 5352 5352 5352 5352 5351 5351 5351 5350 5350 5349 5349 5349 5349 5349 5349 5348 5348 5348 5347 5347 5347 5347 5347 5347
5377 5375 5373 5371 5369 5366 5364 5362 5360 5358 5356 5355 5353 5351 5350 5349 5348 5347 5346 5346 5346 5345 5345 5345 5345 5345 5346 5346 5346 5346 5346 5346 5346 5346 5346 5347 5347 5347 5347 5347 5347 5346 5347 5347 5347 5348 5348 5349 5349 5349 5349 5349 5350 5350 5350 5350 5351 5351 5351 5351 5351 5352 5352 5352 5351 5351 5351 5351 5350 5350 5349 5349 5349 5348 5348 5348 5348 5348 5347 5347 5347 5347 5346 5346 5346 5346
5374 5372 5370 5367 5365 5362 5360 5358 5356 5354 5352 5351 5349 5347 5346 5345 5344 5343 5342 5342 5342 5341 5341 5341 5341 5342 5342 5342 5343 5343 5343 5344 5344 5344 5345 5345 5345 5345 5345 5345 5345 5345 5345 5346 5346 5346 5347 5347 5348 5348 5348 5348 5348 5348 5349 5349 5350 5350 5351 5351 5351 5351 5351 5351 5351 5351 5351 5350 5350 5350 5349 5349 5348 5348 5348 5347 5347 5347 5347 5346 5346 5346 5346 5346 5346 5346
5371 5369 5366 5364 5361 5359 5356 5354 5352 5350 5348 5346 5345 5343 5342 5341 5340 5339 5338 5338 5338 5338 5338 5338 5338 5339 5339 5340 5340 5340 5341 5341 5342 5342 5343 5343 5343 5343 5343 5343 5343 5343 5344 5344 5345 5346 5346 5346 5347 5347 5347 5347 5347 5347 5348 5348 5349 5349 5350 5350 5350 5350 5350 5351 5351 5350 5350 5350 5350 5349 5349 5349 5348 5348 5347 5347 5347 5346 5346 5346 5346 5346 5346 5345 5345 5345
5368 5365 5362 5360 5358 5355 5353 5351 5348 5346 5344 5342 5341 5339 5337 5336 5335 5335 5334 5334 5334 5334 5334 5334 5335 5335 5336 5336 5337 5338 5338 5339 5340 5340 5341 5341 5341 5341 5341 5341 5341 5342 5342 5343 5344 5344 5345 5345 5346 5346 5346 5346 5346 5347 5347 5347 5348 5348 5348 5349 5349 5349 5350 5350 5350 5350 5349 5349 5349 5349 5349 5348 5348 5347 5347 5346 5346 5346 5346 5346 5345 5345 5345 5345 5344 5344
5364 5362 5359 5357 5355 5352 5350 5347 5345 5342 5340 5338 5336 5335 5333 5332 5331 5331 5330 5330 5330 5330 5330 5331 5331 5332 5333 5333 5335 5336 5336 5337 5338 5338 5339 5340 5340 5340 5340 5340 5340 5341 5341 5342 5342 5343 5344 5344 5344 5345 5345 5345 5346 5346 5346 5346 5347 5347 5347 5348 5348 5349 5349 5349 5349 5349 5349 5349 5349 5348 5348 5348 5347 5347 5346 5346 5346 5345 5345 5345 5345 5344 5344 5344 5344 5344
5361 5359 5356 5354 5352 5349 5347 5344 5341 5339 5337 5335 5333 5331 5330 5328 5327 5327 5326 5326 5326 5326 5327 5327 5328 5329 5330 5331 5332 5333 5334 5335 5336 5337 5337 5338 5338 5338 5339 5339 5339 5340 5340 5341 5341 5342 5342 5343 5343 5344 5344 5344 5345 5345 5346 5346 5346 5346 5347 5347 5347 5348 5348 5348 5348 5348 5348 5348 5348 5347 5347 5347 5346 5346 5346 5346 5345 5345 5344 5344 5344 5343 5343 5343 5343 5343
5359 5356 5354 5352 5349 5346 5344 5341 5339 5336 5334 5331 5330 5328 5326 5325 5324 5324 5323 5323 5323 5324 5324 5325 5326 5327 5328 5329 5330 5331 5332 5334 5335 5336 5336 5337 5337 5337 5337 5337 5338 5338 5339 5340 5340 5341 5341 5342 5342 5343 5343 5343 5344 5344 5345 5345 5346 5346 5346 5346 5347 5347 5347 5347 5347 5347 5347 5347 5347 5346 5346 5346 5346 5345 5345 5345 5344 5344 5343 5343 5343 5342 5342 5342 5342 5342
5357 5354 5352 5349 5347 5344 5341 5339 5336 5334 5331 5329 5327 5325 5323 5322 5321 5321 5321 5321 5321 5321 5322 5323 5324 5325 5326 5328 5329 5330 5331 5332 5333 5334 5335 5336 5336 5336 5336 5336 5337 5338 5338 5339 5339 5340 5340 5341 5341 5341 5342 5342 5343 5343 5344 5344 5345 5345 5345 5346 5346 5346 5346 5347 5346 5346 5346 5346 5346 5346 5345 5345 5345 5344 5344 5343 5343 5343 5342 5342 5342 5342 5341 5341 5341 5342
5355 5353 5350 5348 5345 5342 5340 5337 5335 5332 5329 5327 5325 5323 5321 5320 5319 5319 5319 5319 5319 5320 5320 5321 5322 5324 5325 5327 5328 5329 5330 5331 5332 5333 5334 5334 5335 5335 5336 5336 5336 5337 5337 5338 5339 5339 5340 5340 5340 5341 5341 5341 5342 5342 5343 5343 5344 5344 5345 5345 5345 5345 5346 5346 5346 5346 5346 5345 5345 5345 5344 5344 5343 5343 5343 5342 5342 5341 5341 5341 5341 5341 5341 5341 5341 5341
5353 5351 5349 5346 5344 5341 5339 5336 5333 5331 5328 5326 5323 5321 5320 5319 5318 5317 5317 5317 5318 5318 5319 5321 5322 5323 5325 5326 5327 5328 5330 5331 5331 5332 5333 5333 5334 5334 5335 5335 5336 5336 5337 5337 5338 5339 5339 5339 5340 5340 5340 5341 5341 5342 5342 5343 5343 5344 5344 5344 5344 5345 5345 5345 5345 5345 5345 5345 5344 5344 5343 5343 5342 5342 5341 5341 5341 5341 5340 5340 5340 5340 5340 5340 5341 5341
5352 5349 5347 5345 5342 5340 5337 5335 5332 5330 5328 5325 5323 5321 5320 5318 5317 5317 5317 5317 5317 5318 5319 5321 5322 5323 5324 5326 5327 5328 5329 5330 5331 5331 5332 5332 5333 5333 5334 5335 5335 5336 5336 5337 5337 5338 5338 5339 5339 5339 5339 5340 5340 5341 5341 5342 5343 5343 5343 5343 5344 5344 5344 5344 5344 5344 5344 5344 5343 5343 5342 5342 5341 5341 5341 5341 5340 5340 5340 5340 5340 5340 5340 5340 5340 5340